THOR ABLESTAR DEB, 655

Orbit data source: Space-Track

THOR ABLESTAR DEB, 655 is space debris in LEO originally from a launch on Thu, 29 Jun 1961 UTC launched from the Air Force Eastern Test Range (AFETR). Debris objects in space refer to the collection of defunct objects orbiting the Earth. Examples of debris include non-operational satellites, rocket bodies, and fragments generated from explosions, collisions, or faulty payload assembly.

Loading next visibility...
Identifier
655, 1961-015HG
Orbit
LEO
Country
Flag of USUS
Related business
Manufacturer
Unknown
Mission
Spacecraft
Bus & Motor
Unknown
Mass
Unknown
Launch date (UTC)
1961-06-29 (65 years ago)
Launch vehicle
Unknown
Launch site
Air Force Eastern Test Range (AFETR)
Object type
Payload
Rocket body
Debris
Shape & HBR
Unknown shape, 0.1 m
Radar Cross Section
Medium (>0.1 m² and <1 m²)

Expand to show TLE details & history
Last TLE update: 15 hours ago

TLE from 15 hours ago
0 THOR ABLESTAR DEB
1 00655U 61015HG  26265.34661465  .00000385  00000-0  92170-3 0  9993
2 00655  67.2578  38.1543 0369073 254.1012 133.3743 13.09596110 99658
Epoch: 2026-09-22T08:19Z
TLE epoch observation values (Epoch: 2026-09-22T08:19:07.505Z)
Latitude
27.91916°
Longitude
-75.07071°
Altitude
1,425.286 km
Speed
7.057 km/s
True Right ascension
03h 23m 41s
True Declination
27° 47' 21"
Sunlit
Object was in daylight at epoch
Visualization orbit readout
Latitude
Unknown
Longitude
Unknown
Altitude
Unknown
Speed
Unknown
Apparent Right ascension
Unknown
Apparent Declination
Unknown
Sunlit
N/A
Visualization observer readout
Local Sidereal Time
16:24:35
Azimuth
Unknown
Elevation
Unknown
Doppler factor
Unknown
Orbital elements
Apogee altitude
1,503.668 km
Perigee altitude
942.584 km
Semi-major axis
7,601.263 km
Eccentricity
0.03691
Inclination
67.2578°
RAAN
38.1543°
Arg. of periapsis
254.1012°
True anomaly
136.35262°
Mean anomaly
133.3743°
Eccentric anomaly
134.87288°
Mean motion
3.27502 °/min
Orbital period
109.92 mins
BSTAR
0.0009217

Documentation

Showing up to 5 results
|